Regional Weather Roundup
Issued by NWS

Home | Current Version | Previous Version | Text Only | Print | Product List | Glossary On
Versions: 1 2 3 4 5 6 7 8 9 10 11 12 13 14 15 16 17 18 19 20 21 22 23 24 25 26 27 28 29 30 31 32 33 34 35 36 37 38 39 40 41 42 43 44 45 46 47 48 49 50
000
ASUS46 KSEW 240510
RWRWA

WASHINGTON REGIONAL WEATHER ROUNDUP
NATIONAL WEATHER SERVICE SEATTLE WA
1000 PM PDT TUE SEP 23 2014

NOTE:"FAIR" INDICATES FEW OR NO CLOUDS BELOW 12,000 FEET WITH NO
SIGNIFICANT WEATHER AND/OR OBSTRUCTIONS TO VISIBILITY.

WAZ505-507>509-240600-
SEATTLE, TACOMA, EVERETT, AND VICINITY

CITY           SKY/WX    TMP DP  RH WIND       PRES   REMARKS
EVERETT        LGT RAIN  60  58  92 E13       29.72F FOG
BOEING FIELD   LGT RAIN  65  60  84 CALM      29.71F
RENTON         LGT RAIN  62  62 100 CALM      29.71F
SEATAC AIRPORT LGT RAIN  63  59  87 E7        29.73F
JBLM-MCCHORD   LGT RAIN  62  61  99 CALM      29.71F
PUYALLUP       NOT AVBL
JBLM-FT LEWIS  RAIN      62  61  99 NE3       29.70F
TACOMA NARROWS LGT RAIN  61  59  93 NE6       29.71F
$$

WAZ001-503-506-510-514-515-240600-
NORTH INTERIOR

CITY           SKY/WX    TMP DP  RH WIND       PRES   REMARKS
BELLINGHAM     LGT RAIN  60  57  89 N5        29.73F
FRIDAY HARBOR  LGT RAIN  60  58  92 E9        29.70F
EASTSOUND      LGT RAIN  61  57  88 CALM      29.69F
PORT ANGELES   LGT RAIN  61  58  90 CALM      29.65F FOG
NAS WHIDBEY    CLOUDY    64  58  80 E12       29.71F
BURLINGTON     CLOUDY    63  61  94 E6        29.75F
$$

WAZ020-022-039-040-504-511-512-240600-
SOUTHWEST INTERIOR

CITY           SKY/WX    TMP DP  RH WIND       PRES   REMARKS
SHELTON        RAIN      61  60  97 CALM      29.67F FOG
OLYMPIA        RAIN      62  60  93 CALM      29.70F FOG
CHEHALIS       LGT RAIN  63  63 100 W5        29.69F
KELSO          CLOUDY    63  57  82 SE7       29.73F
VANCOUVER      LGT RAIN  64  60  87 CALM      29.71F
SCAPPOOSE, OR  LGT RAIN  62  61  96 CALM      29.70F FOG
PORTLAND, OR   LGT RAIN  64  61  90 E8        29.71F
$$

WAZ021-516-517-240600-
WASHINGTON COAST

CITY           SKY/WX    TMP DP  RH WIND       PRES   REMARKS
FORKS          LGT RAIN  59  57  93 E7        29.59F FOG
HOQUIAM        RAIN      62  61  96 E10       29.64F FOG
ASTORIA, OR    RAIN      64  61  90 S15G23    29.67R FOG
$$

WAZ019-023-024-040-518-519-240600-
CASCADE MOUNTAINS AND COLUMBIA GORGE

CITY           SKY/WX    TMP DP  RH WIND       PRES   REMARKS
STAMPEDE PASS  NOT AVBL
TROUTDALE, OR  LGT RAIN  66  58  75 E15       29.70F
THE DALLES, OR CLOUDY    67  56  67 W3        29.76F
$$

WAZ026-027-041>044-520-521-240600-
EAST SLOPES

CITY           SKY/WX    TMP DP  RH WIND       PRES   REMARKS
OMAK           LGT RAIN  63  57  81 SW6       29.83F
WENATCHEE      CLOUDY    63  57  81 CALM      29.81F
ELLENSBURG     CLOUDY    61  57  87 CALM      29.82F
YAKIMA         MOCLDY    61  58  90 W8        29.81S
$$

WAZ028-034-035-240600-
COLUMBIA BASIN

CITY           SKY/WX    TMP DP  RH WIND       PRES   REMARKS
EPHRATA        CLOUDY    66  59  78 N7        29.82F
MOSES LAKE     CLOUDY    67  59  75 N6        29.82F
PASCO          CLOUDY    68  60  75 NW3       29.78F
HERMISTON, OR  CLOUDY    68  55  63 CALM      29.76F
$$

WAZ036>038-240600-
NORTHEAST WASHINGTON

CITY           SKY/WX    TMP DP  RH WIND       PRES   REMARKS
SPOKANE GEIGER CLOUDY    65  55  70 NE6       29.90F
SPOKANE FELTS  CLOUDY    68  55  63 N8        29.89F
FAIRCHILD AFB  CLOUDY    63  55  74 N6        29.90F
COEURDALENE,ID CLOUDY    66  54  63 N10       29.90F
DEER PARK      CLOUDY    63  56  78 NE8       29.90F
$$

WAZ029>033-240600-
SOUTHEAST WASHINGTON

CITY           SKY/WX    TMP DP  RH WIND       PRES   REMARKS
PULLMAN        CLOUDY    65  51  60 CALM      29.90F
LEWISTON, ID   CLOUDY    73  58  59 CALM      29.82F
WALLA WALLA    MOCLDY    69  56  62 E8        29.79F
PENDLETON, OR  CLOUDY    66  54  65 CALM      29.79F
$$



USA.gov is the U.S. government's official web portal to all federal, state and local government web resources and services.